"Platform","Reno Beach Station"
"Latitude (deg)",41.68
"Longitude (deg)",-83.25
"Water Depth (m)",7
"Sensor Device","Campbell CR200 Logger analog input and Pololu ACS711EX current sensor"
"Sensor Type","Solar Panel current"
"Sensor Units","amps"
"Measurement","2 minute average of data samples taken at 5 second interval"
"Time means","Time at beginning of averaging period (UTC time zone)"

"Note:","This data was collected for research purposes."
"Note:","Minimal quality checking has been performed so data may contain known or unknown errors."
"Note:","Data provided by NOAA. Please credit NOAA."
"Note:","For more info see www.glerl.noaa.gov/res/recon"

"Time (UTC)","Solar Panel Current"
"YYYY/MM/DD HH:MM","amps"
2021/11/15 17:10, 0.29824
2021/11/15 17:15, 0.294247
2021/11/15 17:20, 0.282431
2021/11/15 17:25, 0.295017
2021/11/15 17:30, 0.350921
2021/11/15 17:35, 0.444784
2021/11/15 17:40, 0.402836
2021/11/15 18:05, 0.597035
2021/11/15 18:10, 0.388004
2021/11/15 18:15, 0.359042
2021/11/15 18:20, 0.366417
2021/11/15 18:25, 0.51888
2021/11/15 18:30, 0.362727
2021/11/15 18:35, 0.223905
2021/11/15 18:40, 0.203224
2021/11/15 19:05, 0.217718
2021/11/15 19:10, 0.180943
2021/11/15 19:15, 0.182907
2021/11/15 19:20, 0.202971
2021/11/15 19:25, 0.246862
2021/11/15 19:30, 0.22429
2021/11/15 19:35, 0.188539
2021/11/15 19:40, 0.150349
2021/11/15 20:05, 0.159124
2021/11/15 20:10, 0.116736
2021/11/15 20:15, 0.0850655
2021/11/15 20:20, 0.105988
2021/11/15 20:25, 0.167834
2021/11/15 20:30, 0.168305
2021/11/15 20:35, 0.176123
2021/11/15 20:40, 0.174774
2021/11/15 21:05, 0.0508664
2021/11/15 21:10, 0.0290299
2021/11/15 21:15, 0.0205581
2021/11/15 21:20, 0.00984548
2021/11/15 21:25, -0.00086085
2021/11/15 21:30, -0.00722163
2021/11/15 21:35, -0.0146317
2021/11/15 21:40, -0.0319372
2021/11/15 22:05, -0.0606403
2021/11/15 22:10, -0.0654922
2021/11/15 22:15, -0.0613107
2021/11/15 22:20, -0.0609548
2021/11/15 22:25, -0.0595669
2021/11/15 22:30, -0.0575819
2021/11/15 22:35, -0.0583907
2021/11/15 22:40, -0.0598288
2021/11/15 23:05, -0.0598638
2021/11/15 23:10, -0.0618457
2021/11/15 23:15, -0.059611
2021/11/15 23:20, -0.062972
2021/11/15 23:25, -0.0613224
2021/11/15 23:30, -0.0637367
2021/11/15 23:35, -0.062666
2021/11/15 23:40, -0.0618106
2021/11/16 00:05, -0.0614253
2021/11/16 00:10, -0.0626928
2021/11/16 00:15, -0.059914
2021/11/16 00:20, -0.0601874
2021/11/16 00:25, -0.0580614
2021/11/16 00:30, -0.0611577
2021/11/16 00:35, -0.0596754
2021/11/16 00:40, -0.0606226
2021/11/16 01:05, -0.0601842
2021/11/16 01:10, -0.0594845
2021/11/16 01:15, -0.0604549
2021/11/16 01:20, -0.0582024
2021/11/16 01:25, -0.0610752
2021/11/16 01:30, -0.0622898
2021/11/16 01:35, -0.0600872
2021/11/16 01:40, -0.0634689
2021/11/16 02:05, -0.0590022
2021/11/16 02:10, -0.0592229
2021/11/16 02:15, -0.0622604
2021/11/16 02:20, -0.0609342
2021/11/16 02:25, -0.0602373
2021/11/16 02:30, -0.0668918
2021/11/16 02:35, -0.0635806
2021/11/16 02:40, -0.0640336
2021/11/16 03:05, -0.0608548
2021/11/16 03:10, -0.0575792
2021/11/16 03:15, -0.0568762
2021/11/16 03:20, -0.0596993
2021/11/16 03:25, -0.0603165
2021/11/16 03:30, -0.0577201
2021/11/16 03:35, -0.0581199
2021/11/16 03:40, -0.0602283
2021/11/16 04:05, -0.0584964
2021/11/16 04:10, -0.0599168
2021/11/16 04:15, -0.0569144
2021/11/16 04:20, -0.0590196
2021/11/16 04:25, -0.0588817
2021/11/16 04:30, -0.0623486
2021/11/16 04:35, -0.0589932
2021/11/16 04:40, -0.0631634
2021/11/16 05:05, -0.0636777
2021/11/16 05:10, -0.064519
2021/11/16 05:15, -0.0633426
2021/11/16 05:20, -0.0630132
2021/11/16 05:25, -0.0614251
2021/11/16 05:30, -0.064213
2021/11/16 05:35, -0.0627309
2021/11/16 05:40, -0.0633895
2021/11/16 06:05, -0.0653009
2021/11/16 06:10, -0.0659627
2021/11/16 06:15, -0.0640834
2021/11/16 06:20, -0.0631719
2021/11/16 06:25, -0.0616459
2021/11/16 06:30, -0.0592786
2021/11/16 06:35, -0.0608518
2021/11/16 06:40, -0.0611812
2021/11/16 07:05, -0.061831
2021/11/16 07:10, -0.0634338
2021/11/16 07:15, -0.0589286
2021/11/16 07:20, -0.0612078
2021/11/16 07:25, -0.0592818
2021/11/16 07:30, -0.0616575
2021/11/16 07:35, -0.0595051
2021/11/16 07:40, -0.0630722
2021/11/16 08:05, -0.0658506
2021/11/16 08:10, -0.0633456
2021/11/16 08:15, -0.062872
2021/11/16 08:20, -0.061196
2021/11/16 08:25, -0.0576262
2021/11/16 08:30, -0.0599375
2021/11/16 08:35, -0.0593698
2021/11/16 08:40, -0.0601168
2021/11/16 09:05, -0.06134
2021/11/16 09:10, -0.0604548
2021/11/16 09:15, -0.0615547
2021/11/16 09:20, -0.0601491
2021/11/16 09:25, -0.0611695
2021/11/16 09:30, -0.0625191
2021/11/16 09:35, -0.05817
2021/11/16 09:40, -0.063078
2021/11/16 10:05, -0.0644776
2021/11/16 10:10, -0.0648803
2021/11/16 10:15, -0.0636454
2021/11/16 10:20, -0.0635248
2021/11/16 10:25, -0.0621721
2021/11/16 10:30, -0.0609635
2021/11/16 10:35, -0.0609137
2021/11/16 10:40, -0.0625956
2021/11/16 11:05, -0.0617045
2021/11/16 11:10, -0.0625192
2021/11/16 11:15, -0.0627572
2021/11/16 11:20, -0.0642483
2021/11/16 11:25, -0.0617429
2021/11/16 11:30, -0.0675918
2021/11/16 11:35, -0.0648451
2021/11/16 11:40, -0.0628574
2021/11/16 12:05, -0.062725
2021/11/16 12:10, -0.0635366
2021/11/16 12:15, -0.0575702
2021/11/16 12:20, -0.0543241
2021/11/16 12:25, -0.0568204
2021/11/16 12:30, -0.0529214
2021/11/16 12:35, -0.0470606
2021/11/16 12:40, -0.0410793
2021/11/16 13:05, -0.000502427
2021/11/16 13:10, 0.0206347
2021/11/16 13:15, 0.0371018
2021/11/16 13:20, 0.0429447
2021/11/16 13:25, 0.0967985
2021/11/16 13:30, 0.213501
2021/11/16 13:35, 0.317239
2021/11/16 13:40, 0.476518
2021/11/16 14:05, 0.835672
2021/11/16 14:10, 1.36075
2021/11/16 14:15, 2.304
2021/11/16 14:20, 2.47413
2021/11/16 14:25, 2.49041
2021/11/16 14:30, 2.63511
2021/11/16 14:35, 2.34994
2021/11/16 14:40, 2.22895
2021/11/16 14:45, 2.05934
2021/11/16 14:50, 1.31462
2021/11/16 14:55, 1.30666
2021/11/16 15:00, 1.33889
2021/11/16 15:05, 1.35301
2021/11/16 15:10, 1.49318
2021/11/16 15:15, 1.69383
2021/11/16 15:20, 1.86264
2021/11/16 15:25, 1.89874
2021/11/16 15:30, 1.82839
2021/11/16 15:35, 1.7041
2021/11/16 15:40, 1.78664
2021/11/16 15:45, 1.48206
2021/11/16 15:50, 1.46921
2021/11/16 15:55, 1.36094
2021/11/16 16:00, 1.00427
2021/11/16 16:05, 1.24601
2021/11/16 16:10, 1.57973
2021/11/16 16:15, 1.20943
2021/11/16 16:20, 1.20366
2021/11/16 16:25, 1.13159
2021/11/16 16:30, 1.19547
2021/11/16 16:35, 0.784327
2021/11/16 16:40, 0.975455
2021/11/16 16:45, 0.862455
2021/11/16 16:50, 0.962643
2021/11/16 16:55, 0.933991
2021/11/16 17:00, 0.915077
2021/11/16 17:05, 0.817814
2021/11/16 17:10, 0.638145
2021/11/16 17:15, 0.953686
2021/11/16 17:20, 0.564997
2021/11/16 17:25, 0.583432
2021/11/16 17:30, 0.668959
2021/11/16 17:35, 0.754727
2021/11/16 17:40, 0.618561
2021/11/16 17:45, 0.697338
2021/11/16 17:50, 0.670759
2021/11/16 17:55, 0.495494
2021/11/16 18:00, 0.153799
2021/11/16 18:05, 0.560575
2021/11/16 18:10, 0.730573
2021/11/16 18:15, 0.554247
2021/11/16 18:20, 0.588746
2021/11/16 18:25, 0.669465
2021/11/16 18:30, 0.489416
2021/11/16 18:35, 0.727365
2021/11/16 18:40, 0.457793
2021/11/16 18:45, 0.518851
2021/11/16 18:50, 0.530099
2021/11/16 18:55, 0.520474
2021/11/16 19:00, 0.334841
2021/11/16 19:05, 0.492298
2021/11/16 19:10, 0.441778
2021/11/16 19:15, 0.306382
2021/11/16 19:20, 0.267978
2021/11/16 19:25, 0.40628
2021/11/16 19:30, 0.35796
2021/11/16 19:35, 0.23181
2021/11/16 19:40, 0.430404
2021/11/16 19:45, 0.130965
2021/11/16 19:50, 0.354531
2021/11/16 19:55, 0.268567
2021/11/16 20:00, 0.242116
2021/11/16 20:05, 0.350506
2021/11/16 20:10, 0.507159
2021/11/16 20:15, 0.492965
2021/11/16 20:20, 0.321903
2021/11/16 20:25, 0.346407
2021/11/16 20:30, 0.445592
2021/11/16 20:35, 0.385708
2021/11/16 20:40, 0.33363
2021/11/16 20:45, 0.399896
2021/11/16 20:50, 0.478045
2021/11/16 20:55, 0.408497
2021/11/16 21:00, 0.343401
2021/11/16 21:05, 0.268181
2021/11/16 21:10, 0.23932
2021/11/16 21:15, 0.262368
2021/11/16 21:20, 0.283002
2021/11/16 21:25, 0.321803
2021/11/16 21:30, 0.26552
2021/11/16 22:05, -0.0372684
2021/11/16 22:10, -0.0504364
2021/11/16 22:15, -0.0525037
2021/11/16 22:20, -0.055697
2021/11/16 23:05, -0.0563116
2021/11/16 23:10, -0.0536917
2021/11/16 23:15, -0.0534769
2021/11/16 23:20, -0.0545796
2021/11/17 00:05, -0.054356
2021/11/17 00:10, -0.0534325
2021/11/17 00:15, -0.0564292
2021/11/17 00:20, -0.055456
2021/11/17 01:05, -0.0626868
2021/11/17 01:10, -0.0609637
2021/11/17 01:15, -0.0591289
2021/11/17 01:20, -0.0577583
2021/11/17 02:05, -0.0617574
2021/11/17 02:10, -0.0620105
2021/11/17 02:15, -0.0600962
2021/11/17 02:20, -0.0608166
2021/11/17 03:05, -0.0583141
2021/11/17 03:10, -0.0605549
2021/11/17 03:15, -0.060896
2021/11/17 03:20, -0.0560586
2021/11/17 04:05, -0.0602814
2021/11/17 04:10, -0.0592964
2021/11/17 04:15, -0.0567674
2021/11/17 04:20, -0.0566498
2021/11/17 05:05, -0.0589847
2021/11/17 05:10, -0.0597903
2021/11/17 05:15, -0.0577965
2021/11/17 05:20, -0.0586579
2021/11/17 06:05, -0.0608225
2021/11/17 06:10, -0.0599432
2021/11/17 06:15, -0.0621722
2021/11/17 06:20, -0.0618076
2021/11/17 07:05, -0.0602785
2021/11/17 07:10, -0.0602138
2021/11/17 07:15, -0.0578526
2021/11/17 07:20, -0.0623928
2021/11/17 08:05, -0.0604402
2021/11/17 08:10, -0.057923
2021/11/17 08:15, -0.0602432
2021/11/17 08:20, -0.061193
2021/11/17 09:05, -0.0604959
2021/11/17 09:10, -0.0610518
2021/11/17 09:15, -0.0578349
2021/11/17 09:20, -0.0585023
2021/11/17 10:05, -0.0574701
2021/11/17 10:10, -0.0599196
2021/11/17 10:15, -0.0553971
2021/11/17 10:20, -0.0573937
2021/11/17 11:05, -0.0540385
2021/11/17 11:10, -0.0539768
2021/11/17 11:15, -0.0542649
2021/11/17 11:20, -0.0554264
2021/11/17 12:05, -0.0559324
2021/11/17 12:10, -0.0563029
2021/11/17 12:15, -0.0541445
2021/11/17 12:20, -0.0563675
2021/11/17 13:05, 0.0207081
2021/11/17 13:10, 0.0171351
2021/11/17 13:15, 0.0549981
2021/11/17 13:20, 0.084557
2021/11/17 14:05, 0.0683424
2021/11/17 14:10, 0.0681661
2021/11/17 14:15, 0.0757233
2021/11/17 14:20, 0.0573448
2021/11/17 15:05, 0.122734
2021/11/17 15:10, 0.1032
2021/11/17 15:15, 0.129909
2021/11/17 15:20, 0.0815399
2021/11/17 16:05, 0.26213
2021/11/17 16:10, 0.313137
2021/11/17 16:15, 0.270666
2021/11/17 16:20, 0.260809
2021/11/17 17:05, 0.376262
2021/11/17 17:10, 0.460545
2021/11/17 17:15, 0.477242
2021/11/17 17:20, 0.519589
2021/11/17 18:05, 0.868057
2021/11/17 18:10, 0.497735
2021/11/17 18:15, 0.533257
2021/11/17 18:20, 0.896983
2021/11/17 19:05, 0.334236
2021/11/17 19:10, 0.28666
2021/11/17 19:15, 0.276865
2021/11/17 19:20, 0.254772
2021/11/17 20:05, 0.167243
2021/11/17 20:10, 0.174518
2021/11/17 20:15, 0.11296
2021/11/17 20:20, 0.0684868
2021/11/17 21:05, -0.00960929
2021/11/17 21:10, -0.0278792
2021/11/17 21:15, -0.0384122
2021/11/17 21:20, -0.0453814
2021/11/17 22:05, -0.0499659
2021/11/17 22:10, -0.0518243
2021/11/17 22:15, -0.0526947
2021/11/17 22:20, -0.0534356
2021/11/17 23:05, -0.0508363
2021/11/17 23:10, -0.0530566
2021/11/17 23:15, -0.0502541
2021/11/17 23:20, -0.0503041
2021/11/18 00:05, -0.0500659
2021/11/18 00:10, -0.0525477
2021/11/18 00:15, -0.052871
2021/11/18 00:20, -0.0519213
2021/11/18 01:05, -0.0544678
2021/11/18 01:10, -0.0511597
2021/11/18 01:15, -0.0535504
2021/11/18 01:20, -0.0510126
2021/11/18 02:05, -0.0505041
2021/11/18 02:10, -0.0515598
2021/11/18 02:15, -0.0510126
2021/11/18 02:20, -0.0508216
2021/11/18 03:05, -0.0553208
2021/11/18 03:10, -0.0538621
2021/11/18 03:15, -0.0555971
2021/11/18 03:20, -0.0538445
2021/11/18 04:05, -0.0534505
2021/11/18 04:10, -0.0539299
2021/11/18 04:15, -0.053827
2021/11/18 04:20, -0.0549824
2021/11/18 05:05, -0.0514008
2021/11/18 05:10, -0.0525066
2021/11/18 05:15, -0.052374
2021/11/18 05:20, -0.0542739
2021/11/18 06:05, -0.0571998
2021/11/18 06:10, -0.0550883
2021/11/18 06:15, -0.0572527
2021/11/18 06:20, -0.0559558
2021/11/18 07:05, -0.0555236
2021/11/18 07:10, -0.0530534
2021/11/18 07:15, -0.0551971
2021/11/18 07:20, -0.0558823
2021/11/18 08:05, -0.0586231
2021/11/18 08:10, -0.0571055
2021/11/18 08:15, -0.0546149
2021/11/18 08:20, -0.0569351
2021/11/18 09:05, -0.0567761
2021/11/18 09:10, -0.0565793
2021/11/18 09:15, -0.055497
2021/11/18 09:20, -0.054556
2021/11/18 10:05, -0.0578878
2021/11/18 10:10, -0.0569704
2021/11/18 10:15, -0.0572761
2021/11/18 10:20, -0.0565114
2021/11/18 11:05, -0.0571438
2021/11/18 11:10, -0.0563204
2021/11/18 11:15, -0.0555854
2021/11/18 11:20, -0.0576056
2021/11/18 12:05, -0.0551619
2021/11/18 12:10, -0.0572938
2021/11/18 12:15, -0.0548617
2021/11/18 12:20, -0.0550029
2021/11/18 13:05, 0.0341437
2021/11/18 13:10, 0.0540953
2021/11/18 13:15, 0.0799371
2021/11/18 13:20, 0.109828
2021/11/18 14:05, 0.427517
2021/11/18 14:10, 0.49739
2021/11/18 14:15, 0.421303
2021/11/18 14:20, 0.429519
2021/11/18 15:05, 1.43969
2021/11/18 15:10, 1.46794
2021/11/18 15:15, 1.09288
2021/11/18 15:20, 1.29589
2021/11/18 16:05, 0.764916
2021/11/18 16:10, 0.800403
2021/11/18 16:15, 0.776887
2021/11/18 16:20, 0.767756
2021/11/18 17:05, 0.436632
2021/11/18 17:10, 0.584062
2021/11/18 17:15, 0.548298
2021/11/18 17:20, 0.431836
2021/11/18 18:05, 0.683927
2021/11/18 18:10, 0.583017
2021/11/18 18:15, 0.512211
2021/11/18 18:20, 0.646305
2021/11/18 19:05, 0.443167
2021/11/18 19:10, 0.430839
2021/11/18 19:15, 0.698394
2021/11/18 19:20, 0.503686
2021/11/18 19:25, 0.537585
2021/11/18 19:30, 0.482855
2021/11/18 19:35, 0.534236
2021/11/18 19:40, 0.518801
2021/11/18 19:45, 0.514058
2021/11/18 19:50, 0.509315
2021/11/18 19:55, 0.534827
2021/11/18 20:00, 0.576925
2021/11/18 20:05, 0.456878
2021/11/18 20:10, 0.351747
2021/11/18 20:15, 0.267487
2021/11/18 20:20, 0.478259
2021/11/18 20:25, 0.347074
2021/11/18 20:30, 0.286948
2021/11/18 20:35, 0.278141
2021/11/18 20:40, 0.189233
2021/11/18 20:45, 0.176203
2021/11/18 20:50, 0.139899
2021/11/18 20:55, 0.215869
2021/11/18 21:00, 0.176826
2021/11/18 21:05, 0.122102
2021/11/18 21:10, 0.0399864
2021/11/18 21:15, 0.0164383
2021/11/18 21:20, 0.0376369
2021/11/18 21:25, 0.0497698
2021/11/18 21:30, 0.0304444
2021/11/18 21:35, 0.0251542
2021/11/18 21:40, 0.00411145
2021/11/18 21:45, -0.00748049
2021/11/18 21:50, -0.021498
2021/11/18 21:55, -0.0314314
2021/11/18 22:00, -0.0377859
2021/11/18 22:05, -0.048816
2021/11/18 22:10, -0.0510835
2021/11/18 22:15, -0.0509245
2021/11/18 22:20, -0.0515892
2021/11/18 22:25, -0.0531799
2021/11/18 22:30, -0.054612
2021/11/18 22:35, -0.0545178
2021/11/18 22:40, -0.0562497
2021/11/18 22:45, -0.0546268
2021/11/18 22:50, -0.0541827
2021/11/18 22:55, -0.0525507
2021/11/18 23:00, -0.0531683
2021/11/18 23:05, -0.0532887
2021/11/18 23:10, -0.0538621
2021/11/18 23:15, -0.0550413
2021/11/18 23:20, -0.0537827
2021/11/18 23:25, -0.0554793
2021/11/18 23:30, -0.0549737
2021/11/18 23:35, -0.0557354
2021/11/18 23:40, -0.0580759
2021/11/18 23:45, -0.0540328
2021/11/18 23:50, -0.0558206
2021/11/18 23:55, -0.0550414
2021/11/19 00:00, -0.0572234
2021/11/19 00:05, -0.0558589
2021/11/19 00:10, -0.0554648
2021/11/19 00:15, -0.0536121
2021/11/19 00:20, -0.0535796
2021/11/19 00:25, -0.0515831
2021/11/19 00:30, -0.0530388
2021/11/19 00:35, -0.050263
2021/11/19 00:40, -0.0519419
2021/11/19 00:45, -0.0558762
2021/11/19 00:50, -0.0553148
2021/11/19 00:55, -0.0565233
2021/11/19 01:00, -0.0559059
2021/11/19 01:05, -0.05565
2021/11/19 01:10, -0.0544679
2021/11/19 01:15, -0.0572527
2021/11/19 01:20, -0.0556235
2021/11/19 01:25, -0.0560235
2021/11/19 01:30, -0.0543886
2021/11/19 01:35, -0.0568585
2021/11/19 01:40, -0.0580966
2021/11/19 01:45, -0.0593845
2021/11/19 01:50, -0.0575496
2021/11/19 01:55, -0.0590549
2021/11/19 02:00, -0.0577319
2021/11/19 02:05, -0.0572029
2021/11/19 02:10, -0.0575054
2021/11/19 02:15, -0.056097
2021/11/19 02:20, -0.0570172
2021/11/19 02:25, -0.0566471
2021/11/19 02:30, -0.0576174
2021/11/19 02:35, -0.0579553
2021/11/19 02:40, -0.0566233
2021/11/19 02:45, -0.0559207
2021/11/19 02:50, -0.059564
2021/11/19 02:55, -0.0575613
2021/11/19 03:00, -0.0575673
2021/11/19 03:05, -0.0572437
2021/11/19 03:10, -0.0590698
2021/11/19 03:15, -0.0575349
2021/11/19 03:20, -0.0569966
2021/11/19 03:25, -0.0616547
2021/11/19 03:30, -0.0584849
2021/11/19 03:35, -0.0572379
2021/11/19 03:40, -0.0585699
2021/11/19 03:45, -0.0598727
2021/11/19 03:50, -0.0606842
2021/11/19 03:55, -0.0584026
2021/11/19 04:00, -0.0594846
2021/11/19 04:05, -0.0581054
2021/11/19 04:10, -0.0611225
2021/11/19 04:15, -0.0622752
2021/11/19 04:20, -0.0607871
2021/11/19 04:25, -0.0615016
2021/11/19 04:30, -0.0600137
2021/11/19 04:35, -0.0581906
2021/11/19 04:40, -0.0591433
2021/11/19 04:45, -0.0573878
2021/11/19 04:50, -0.0581083
2021/11/19 04:55, -0.057879
2021/11/19 05:00, -0.0599874
2021/11/19 05:05, -0.0615723
2021/11/19 05:10, -0.0584288
2021/11/19 05:15, -0.0601727
2021/11/19 05:20, -0.0579876
2021/11/19 05:25, -0.0601373
2021/11/19 05:30, -0.0582493
2021/11/19 05:35, -0.0563675
2021/11/19 05:40, -0.0594817
2021/11/19 05:45, -0.0574849
2021/11/19 05:50, -0.0587113
2021/11/19 05:55, -0.0597022
2021/11/19 06:00, -0.0598695
2021/11/19 06:05, -0.0631574
2021/11/19 06:10, -0.0578379
2021/11/19 06:15, -0.0583259
2021/11/19 06:20, -0.0578908
2021/11/19 06:25, -0.0581055
2021/11/19 06:30, -0.0582729
2021/11/19 06:35, -0.0587347
2021/11/19 06:40, -0.0587758
2021/11/19 06:45, -0.0602873
2021/11/19 06:50, -0.0573201
2021/11/19 06:55, -0.0598903
2021/11/19 07:00, -0.0614723
2021/11/19 07:05, -0.0597727
2021/11/19 07:10, -0.0549177
2021/11/19 07:15, -0.0575791
2021/11/19 07:20, -0.0581761
2021/11/19 07:25, -0.0605783
2021/11/19 07:30, -0.0565173
2021/11/19 07:35, -0.0563382
2021/11/19 07:40, -0.0587228
2021/11/19 07:45, -0.0586611
2021/11/19 07:50, -0.0600284
2021/11/19 07:55, -0.0584934
2021/11/19 08:00, -0.0589347
2021/11/19 08:05, -0.0582993
2021/11/19 08:10, -0.0601433
2021/11/19 08:15, -0.0599873
2021/11/19 08:20, -0.0586025
2021/11/19 08:25, -0.058723
2021/11/19 08:30, -0.059714
2021/11/19 08:35, -0.0598137
2021/11/19 08:40, -0.0584056
2021/11/19 08:45, -0.0575791
2021/11/19 08:50, -0.056982
2021/11/19 08:55, -0.0598552
2021/11/19 09:00, -0.0598698
2021/11/19 09:05, -0.0609166
2021/11/19 09:10, -0.0592081
2021/11/19 09:15, -0.0575701
2021/11/19 09:20, -0.0558499
2021/11/19 09:25, -0.0621192
2021/11/19 09:30, -0.0564381
2021/11/19 09:35, -0.056694
2021/11/19 09:40, -0.0582701
2021/11/19 09:45, -0.0617927
2021/11/19 09:50, -0.060684
2021/11/19 09:55, -0.0594875
2021/11/19 10:00, -0.0601638
2021/11/19 10:05, -0.0609724
2021/11/19 10:10, -0.0609546
2021/11/19 10:15, -0.0590553
2021/11/19 10:20, -0.0630013
2021/11/19 10:25, -0.0577584
2021/11/19 10:30, -0.0576613
2021/11/19 10:35, -0.0617105
2021/11/19 10:40, -0.0599962
2021/11/19 10:45, -0.0605254
2021/11/19 10:50, -0.0602313
2021/11/19 10:55, -0.0563941
2021/11/19 11:00, -0.0598081
2021/11/19 11:05, -0.0586995
2021/11/19 11:10, -0.059955
2021/11/19 11:15, -0.057735
2021/11/19 11:20, -0.0617136
2021/11/19 11:25, -0.0589053
2021/11/19 11:30, -0.055947
2021/11/19 11:35, -0.0580996
2021/11/19 11:40, -0.0623516
2021/11/19 11:45, -0.0634719
2021/11/19 11:50, -0.0631808
2021/11/19 11:55, -0.0618782
2021/11/19 12:00, -0.062525
2021/11/19 12:05, -0.0615254
2021/11/19 12:10, -0.0584875
2021/11/19 12:15, -0.0601137
2021/11/19 12:20, -0.0608283
2021/11/19 12:25, -0.0599081
2021/11/19 12:30, -0.0582908
2021/11/19 12:35, -0.0555058
2021/11/19 12:40, -0.0561884
2021/11/19 12:45, -0.049119
2021/11/19 12:50, -0.0375772
2021/11/19 12:55, -0.016602
2021/11/19 13:00, 0.0225577
2021/11/19 13:05, 0.0260716
2021/11/19 13:10, 0.0496112
2021/11/19 13:15, 0.104532
2021/11/19 13:20, 1.00058
2021/11/19 13:25, 1.68893
2021/11/19 13:30, 1.91366
2021/11/19 13:35, 1.9149
2021/11/19 13:40, 1.49091
2021/11/19 13:45, 1.64063
2021/11/19 13:50, 1.27128
2021/11/19 13:55, 1.14726
2021/11/19 14:00, 1.10318
2021/11/19 14:05, 1.21796
2021/11/19 14:10, 1.51062
2021/11/19 14:15, 1.12934
2021/11/19 14:20, 0.821751
2021/11/19 14:25, 0.611541
2021/11/19 14:30, 0.683418
2021/11/19 14:35, 0.636924
2021/11/19 14:40, 0.961643
2021/11/19 14:45, 0.606183
2021/11/19 14:50, 0.514446
2021/11/19 14:55, 0.488525
2021/11/19 15:00, 0.741006
2021/11/19 15:05, 0.562713
2021/11/19 15:10, 0.576795
2021/11/19 15:15, 1.39978
2021/11/19 15:20, 0.637818
2021/11/19 15:25, 0.483773
2021/11/19 15:30, 0.603275
2021/11/19 15:35, 0.87457
2021/11/19 15:40, 0.21955
2021/11/19 15:45, 0.323056
2021/11/19 15:50, 0.487058
2021/11/19 15:55, 0.134494
2021/11/19 16:00, 0.361204
2021/11/19 16:05, 0.0920641
2021/11/19 16:10, 0.335068
2021/11/19 16:15, 0.37955
2021/11/19 16:20, 0.212484
2021/11/19 16:25, 0.357663
2021/11/19 16:30, 0.270569
2021/11/19 16:35, 0.306697
2021/11/19 16:40, 0.287757
2021/11/19 16:45, 0.253211
2021/11/19 16:50, 0.200733
2021/11/19 16:55, 0.297625
2021/11/19 17:00, 0.0992891
2021/11/19 17:05, 0.15826
2021/11/19 17:10, 0.321779
2021/11/19 17:15, 0.24024
2021/11/19 17:20, 0.465621
2021/11/19 17:25, 0.104032
2021/11/19 17:30, 0.181708
2021/11/19 17:35, 0.212796
2021/11/19 17:40, 0.225958
2021/11/19 17:45, 0.311805
2021/11/19 17:50, 0.194787
2021/11/19 17:55, 0.352717
2021/11/19 18:00, 0.19844
2021/11/19 18:05, 0.412555
2021/11/19 18:10, 0.325872
2021/11/19 18:15, 0.395873
2021/11/19 18:20, 0.369161
2021/11/19 18:25, 0.266976
2021/11/19 18:30, 0.164453
2021/11/19 18:35, 0.324626
2021/11/19 18:40, 0.217606
2021/11/19 18:45, 0.095487
2021/11/19 18:50, 0.110114
2021/11/19 18:55, 0.25559
2021/11/19 19:00, 0.138816
2021/11/19 19:05, 0.242684
2021/11/19 19:10, 0.129515
2021/11/19 19:15, 0.287363
2021/11/19 19:20, 0.27882
2021/11/19 19:25, 0.343125
2021/11/19 19:30, 0.194461
2021/11/19 19:35, 0.157839
2021/11/19 19:40, 0.250923
2021/11/19 19:45, 0.0533071
2021/11/19 19:50, 0.0860919
2021/11/19 19:55, 0.379909
2021/11/19 20:00, 0.178876
2021/11/19 20:05, 0.115959
2021/11/19 20:10, 0.312158
2021/11/19 20:15, 0.248818
2021/11/19 20:20, 0.301392
2021/11/19 20:25, 0.223393
2021/11/19 20:30, 0.276891
2021/11/19 20:35, 0.234221
2021/11/19 20:40, 0.135085
2021/11/19 20:45, 0.243957
2021/11/19 20:50, 0.282225
2021/11/19 20:55, 0.19397
2021/11/19 21:00, 0.24992
2021/11/19 21:05, 0.173718
2021/11/19 21:10, 0.204565
2021/11/19 21:15, 0.389495
2021/11/19 21:20, 0.277441
2021/11/19 21:25, 0.221108
2021/11/19 21:30, 0.184672
2021/11/19 21:35, 0.153325
2021/11/19 21:40, 0.0663517
2021/11/19 21:45, 0.0455178
2021/11/19 21:50, 0.0267833
2021/11/19 21:55, 0.0090662
2021/11/19 22:00, -0.00235488
2021/11/19 22:05, -0.0135204
2021/11/19 22:10, -0.0351894
2021/11/19 22:15, -0.0496306
2021/11/19 22:20, -0.052745
2021/11/19 22:25, -0.0524067
2021/11/19 22:30, -0.0555824
2021/11/19 22:35, -0.0539564
2021/11/19 22:40, -0.0556735
2021/11/19 22:45, -0.0552003
2021/11/19 22:50, -0.056303
2021/11/19 22:55, -0.0550091
2021/11/19 23:00, -0.0525213
2021/11/19 23:05, -0.052236
2021/11/19 23:10, -0.054718
2021/11/19 23:15, -0.0554384
2021/11/19 23:20, -0.0560236
2021/11/19 23:25, -0.0551766
2021/11/19 23:30, -0.0563528
2021/11/19 23:35, -0.0560353
2021/11/19 23:40, -0.0560792
2021/11/19 23:45, -0.0572672
2021/11/19 23:50, -0.0558293
2021/11/19 23:55, -0.055753
2021/11/20 00:00, -0.05822
2021/11/20 00:05, -0.0575995
2021/11/20 00:10, -0.0556325
2021/11/20 00:15, -0.0560178
2021/11/20 00:20, -0.0555266
2021/11/20 00:25, -0.0554355
2021/11/20 00:30, -0.0540915
2021/11/20 00:35, -0.0551178
2021/11/20 00:40, -0.0569556
2021/11/20 00:45, -0.0573554
2021/11/20 00:50, -0.058273
2021/11/20 00:55, -0.0548236
2021/11/20 01:00, -0.056444
2021/11/20 01:05, -0.0580849
2021/11/20 01:10, -0.0611342
2021/11/20 01:15, -0.0581701